BREEZE-M DEB (TANK), 42908

Orbit data source: Space-Track

BREEZE-M DEB (TANK), 42908 is space debris in HEO originally from a launch on Wed, 16 Aug 2017 UTC launched from the Tyuratam Missile And Space Complex (TTMTR). Debris objects in space refer to the collection of defunct objects orbiting the Earth. Examples of debris include non-operational satellites, rocket bodies, and fragments generated from explosions, collisions, or faulty payload assembly.

Loading next visibility...
Identifier
42908, 2017-046B
Orbit
HEO
Country
Flag of CISCIS
Related business
Manufacturer
Khrunichev
Mission
Spacecraft
Bus & Motor
BRIZ TANK, Unknown motor
Mass
~1,000 kg wet, 1,000 kg dry
Launch date (UTC)
2017-08-16 (8 years ago)
Launch vehicle
Unknown
Launch site
Tyuratam Missile And Space Complex (TTMTR)
Object type
Payload
Rocket body
Debris
Shape & HBR
Torus, 2.0 m
Radar Cross Section
8.218 m², Large (>1 m²)

Expand to show TLE details & history
Last TLE update: 18 hours ago

TLE from 18 hours ago
0 BREEZE-M DEB (TANK)
1 42908U 17046B   25259.73527026  .00000990  00000-0  14738-2 0  9999
2 42908  48.2744 217.4544 7157704  15.9206 358.0028  2.37972009 68701
Epoch: 2025-09-16T17:38Z
TLE epoch observation values (Epoch: 2025-09-16T17:38:47.35Z)
Latitude
0.00027°
Longitude
-43.17439°
Altitude
475.856 km
Speed
9.975 km/s
True Right ascension
14h 29m 46s
True Declination
0° 00' 01"
Sunlit
Object was in daylight at epoch
Visualization orbit readout
Latitude
Unknown
Longitude
Unknown
Altitude
Unknown
Speed
Unknown
Apparent Right ascension
Unknown
Apparent Declination
Unknown
Sunlit
N/A
Visualization observer readout
Local Sidereal Time
04:40:45
Azimuth
Unknown
Elevation
Unknown
Doppler factor
Unknown
Orbital elements
Apogee altitude
34,284.338 km
Perigee altitude
357.892 km
Semi-major axis
23,699.252 km
Eccentricity
0.71577
Inclination
48.2744°
RAAN
217.4544°
Arg. of periapsis
15.9206°
True anomaly
342.94837°
Mean anomaly
358.0028°
Eccentric anomaly
353.01679°
Mean motion
0.5949 °/min
Orbital period
605.15 mins
BSTAR
0.0014738
Loading maneuver chart data...
Computing Atmospheric mass density...
Loading historical data...
Loading historical data...
Loading historical data...
Loading historical data...
Loading historical data...
Loading historical data...
Loading historical data...
Other satellites on launch #46 in the year 2017 (2017-08-16 UTC)

Documentation

Showing up to 5 results
|